TimeCDT,TemperatureF,Dew PointF,Humidity,Sea Level PressureIn,VisibilityMPH,Wind Direction,Wind SpeedMPH,Gust SpeedMPH,PrecipitationIn,Events,Conditions,WindDirDegrees,DateUTC
12:54 AM,61.0,59.0,93,29.81,8.0,WSW,6.9,-,N/A,,Mostly Cloudy,250,2013-05-10 05:54:00
1:54 AM,60.1,57.9,93,29.82,9.0,WSW,10.4,-,N/A,,Overcast,250,2013-05-10 06:54:00
2:35 AM,60.1,57.9,93,29.81,9.0,West,8.1,-,N/A,,Scattered Clouds,270,2013-05-10 07:35:00
2:54 AM,60.1,57.9,93,29.81,8.0,West,9.2,-,N/A,,Scattered Clouds,270,2013-05-10 07:54:00
3:04 AM,61.0,59.0,93,29.81,9.0,West,8.1,-,N/A,,Mostly Cloudy,270,2013-05-10 08:04:00
3:54 AM,61.0,57.9,90,29.82,10.0,WNW,5.8,-,N/A,,Overcast,290,2013-05-10 08:54:00
4:08 AM,61.0,57.9,90,29.82,10.0,WNW,8.1,-,N/A,,Overcast,300,2013-05-10 09:08:00
4:44 AM,61.0,57.9,90,29.81,10.0,WNW,5.8,-,N/A,,Overcast,300,2013-05-10 09:44:00
4:54 AM,61.0,57.9,90,29.81,10.0,WNW,5.8,-,N/A,,Overcast,300,2013-05-10 09:54:00
5:29 AM,61.0,57.0,87,29.83,10.0,West,9.2,-,N/A,,Overcast,280,2013-05-10 10:29:00
5:54 AM,60.1,55.9,86,29.83,10.0,WNW,8.1,-,N/A,,Overcast,300,2013-05-10 10:54:00
6:54 AM,59.0,55.4,88,29.85,10.0,WNW,6.9,-,N/A,,Overcast,300,2013-05-10 11:54:00
7:27 AM,55.0,53.1,93,29.86,2.5,North,10.4,17.3,0.00,Rain,Light Rain,350,2013-05-10 12:27:00
7:36 AM,54.0,52.0,93,29.87,2.5,NNW,9.2,-,0.00,,Overcast,340,2013-05-10 12:36:00
7:54 AM,53.6,51.8,94,29.87,2.5,North,6.9,-,N/A,Rain,Light Rain,10,2013-05-10 12:54:00
8:08 AM,52.0,51.1,97,29.88,3.0,Variable,5.8,-,0.00,,Overcast,0,2013-05-10 13:08:00
8:30 AM,51.1,48.9,92,29.89,2.5,NNE,8.1,-,0.00,Rain,Light Rain,20,2013-05-10 13:30:00
8:54 AM,51.1,48.9,92,29.90,3.0,Variable,4.6,-,0.01,,Overcast,0,2013-05-10 13:54:00
9:54 AM,51.1,48.0,89,29.91,10.0,North,6.9,-,N/A,,Overcast,350,2013-05-10 14:54:00
10:54 AM,52.0,46.9,83,29.92,10.0,NNE,8.1,17.3,N/A,,Overcast,20,2013-05-10 15:54:00
11:03 AM,52.0,46.9,83,29.92,10.0,NNE,6.9,-,N/A,,Overcast,20,2013-05-10 16:03:00
11:54 AM,53.6,46.4,77,29.93,10.0,Variable,6.9,-,N/A,,Overcast,0,2013-05-10 16:54:00
12:54 PM,53.1,46.9,80,29.94,10.0,North,10.4,-,N/A,,Overcast,360,2013-05-10 17:54:00
1:54 PM,54.0,46.9,77,29.94,10.0,Variable,5.8,-,N/A,,Overcast,0,2013-05-10 18:54:00
2:54 PM,53.1,46.9,80,29.94,10.0,NNW,6.9,-,N/A,,Overcast,340,2013-05-10 19:54:00
3:54 PM,53.1,46.9,80,29.95,10.0,Variable,6.9,-,N/A,,Overcast,0,2013-05-10 20:54:00
4:54 PM,51.8,46.4,82,29.96,10.0,Variable,6.9,-,N/A,,Overcast,0,2013-05-10 21:54:00
5:54 PM,51.1,46.0,83,29.96,10.0,North,6.9,-,N/A,,Overcast,360,2013-05-10 22:54:00
6:54 PM,52.0,46.0,80,29.98,10.0,NNW,3.5,-,N/A,,Overcast,340,2013-05-10 23:54:00
7:39 PM,52.0,46.0,80,29.99,10.0,NNW,4.6,-,N/A,,Overcast,340,2013-05-11 00:39:00
7:54 PM,52.0,46.0,80,29.99,10.0,Variable,3.5,-,N/A,,Overcast,0,2013-05-11 00:54:00
8:54 PM,52.0,46.0,80,29.99,10.0,Variable,3.5,-,N/A,,Overcast,0,2013-05-11 01:54:00
9:54 PM,51.1,46.0,83,29.99,10.0,North,5.8,-,N/A,,Overcast,10,2013-05-11 02:54:00
10:44 PM,51.1,45.0,80,29.99,10.0,North,4.6,-,N/A,,Overcast,360,2013-05-11 03:44:00
10:54 PM,51.1,45.0,80,29.99,10.0,NNE,6.9,-,N/A,,Overcast,20,2013-05-11 03:54:00
11:01 PM,51.1,45.0,80,29.99,10.0,North,3.5,-,N/A,,Overcast,360,2013-05-11 04:01:00
11:50 PM,51.8,44.6,76,29.99,10.0,NNE,5.8,-,N/A,,Overcast,20,2013-05-11 04:50:00
11:54 PM,51.1,45.0,80,29.99,10.0,NNE,4.6,-,N/A,,Overcast,20,2013-05-11 04:54:00